| time (UTC) | temp C | wind direction | speed KPH | gust KPH | rain 1hr cm | rain 24hr cm | rain mn cm | humidity % | barometer mb |
| 20260504224557 | 21 | 284 | 1.6 | 11.3 | 0.00 | 0.00 | 0.00 | 32 | 1006.1 |
| 20260504223041 | 21 | 325 | 3.2 | 9.7 | 0.00 | 0.00 | 0.00 | 31 | 1006.0 |
| 20260504221539 | 22 | 286 | 4.8 | 12.9 | 0.00 | 0.00 | 0.00 | 31 | 1005.9 |
| 20260504220043 | 22 | 303 | 3.2 | 16.1 | 0.00 | 0.00 | 0.00 | 31 | 1005.9 |
| 20260504214543 | 21 | 289 | 3.2 | 6.4 | 0.00 | 0.00 | 0.00 | 33 | 1006.0 |
| 20260504213036 | 22 | 275 | 3.2 | 9.7 | 0.00 | 0.00 | 0.00 | 31 | 1005.9 |
| 20260504211537 | 22 | 306 | 3.2 | 12.9 | 0.00 | 0.00 | 0.00 | 30 | 1006.0 |
| 20260504210043 | 22 | 326 | 8.0 | 19.3 | 0.00 | 0.00 | 0.00 | 30 | 1006.1 |
| 20260504204531 | 22 | 299 | 3.2 | 27.4 | 0.00 | 0.00 | 0.00 | 31 | 1005.9 |
| 20260504203031 | 22 | 297 | 3.2 | 16.1 | 0.00 | 0.00 | 0.00 | 30 | 1005.9 |
| 20260504201529 | 22 | 329 | 6.4 | 22.5 | 0.00 | 0.00 | 0.00 | 29 | 1006.1 |
| 20260504200033 | 22 | 275 | 4.8 | 20.9 | 0.00 | 0.00 | 0.00 | 29 | 1006.0 |
| 20260504194526 | 22 | 300 | 6.4 | 19.3 | 0.00 | 0.00 | 0.00 | 29 | 1006.1 |
| 20260504193023 | 22 | 285 | 1.6 | 22.5 | 0.00 | 0.00 | 0.00 | 29 | 1006.1 |
| 20260504191521 | 21 | 289 | 8.0 | 20.9 | 0.00 | 0.00 | 0.00 | 29 | 1006.2 |
| 20260504190020 | 21 | 344 | 8.0 | 20.9 | 0.00 | 0.00 | 0.00 | 30 | 1006.3 |
| 20260504184525 | 21 | 314 | 6.4 | 17.7 | 0.00 | 0.00 | 0.00 | 28 | 1006.7 |
| 20260504183020 | 20 | 340 | 4.8 | 19.3 | 0.00 | 0.00 | 0.00 | 30 | 1006.8 |
| 20260504181510 | 20 | 313 | 4.8 | 24.1 | 0.00 | 0.00 | 0.00 | 29 | 1006.9 |
| 20260504180008 | 20 | 269 | 4.8 | 29.0 | 0.00 | 0.00 | 0.00 | 29 | 1006.8 |
| 20260504174506 | 20 | 333 | 8.0 | 24.1 | 0.00 | 0.00 | 0.00 | 31 | 1006.8 |
| 20260504173004 | 20 | 332 | 9.7 | 20.9 | 0.00 | 0.00 | 0.00 | 30 | 1007.1 |
| 20260504171502 | 20 | 295 | 8.0 | 20.9 | 0.00 | 0.00 | 0.00 | 33 | 1007.1 |
| 20260504120129 | 11 | 299 | 3.2 | 11.3 | 0.00 | 0.05 | 0.00 | 53 | 1010.2 |
| 20260504081519 | 6 | 307 | 0.0 | 0.0 | 0.00 | 0.05 | 0.00 | 68 | 1010.1 |
| 20260504044543 | 2 | 298 | 0.0 | 0.0 | 0.00 | 0.05 | 0.00 | 72 | 1010.2 |
| 20260504043055 | 3 | 298 | 0.0 | 0.0 | 0.00 | 0.05 | 0.00 | 69 | 1010.0 |
| 20260504041537 | 3 | 298 | 0.0 | 0.0 | 0.00 | 0.05 | 0.00 | 68 | 1010.1 |
| 20260504040032 | 3 | 298 | 0.0 | 0.0 | 0.00 | 0.05 | 0.00 | 68 | 1009.9 |
| 20260504034530 | 3 | 298 | 0.0 | 0.0 | 0.00 | 0.05 | 0.05 | 67 | 1009.8 |
| 20260504033028 | 4 | 298 | 0.0 | 0.0 | 0.00 | 0.05 | 0.05 | 66 | 1009.8 |
| 20260504031528 | 4 | 298 | 0.0 | 1.6 | 0.00 | 0.05 | 0.05 | 66 | 1009.7 |
| 20260504030034 | 4 | 298 | 0.0 | 0.0 | 0.00 | 0.05 | 0.05 | 66 | 1009.7 |
| 20260504024528 | 4 | 298 | 0.0 | 0.0 | 0.00 | 0.05 | 0.05 | 65 | 1009.6 |
| 20260504023026 | 5 | 298 | 0.0 | 0.0 | 0.00 | 0.05 | 0.05 | 64 | 1009.7 |
| 20260504021525 | 5 | 298 | 0.0 | 1.6 | 0.00 | 0.05 | 0.05 | 63 | 1009.6 |
| 20260504020034 | 5 | 298 | 0.0 | 1.6 | 0.00 | 0.05 | 0.05 | 63 | 1009.6 |
| 20260504014624 | 6 | 298 | 0.0 | 0.0 | 0.00 | 0.05 | 0.05 | 61 | 1009.4 |
| 20260504013030 | 6 | 298 | 0.0 | 1.6 | 0.00 | 0.05 | 0.05 | 60 | 1009.2 |
| 20260504011523 | 6 | 298 | 0.0 | 0.0 | 0.00 | 0.05 | 0.05 | 57 | 1009.1 |
| 20260504010023 | 6 | 298 | 0.0 | 1.6 | 0.00 | 0.05 | 0.05 | 57 | 1009.0 |
| 20260504004536 | 7 | 298 | 0.0 | 1.6 | 0.00 | 0.05 | 0.05 | 57 | 1008.8 |
| 20260504003022 | 7 | 298 | 0.0 | 0.0 | 0.00 | 0.05 | 0.05 | 51 | 1008.7 |
| 20260504001531 | 8 | 298 | 0.0 | 0.0 | 0.00 | 0.05 | 0.05 | 48 | 1008.4 |
| 20260504000021 | 9 | 298 | 1.6 | 9.7 | 0.00 | 0.05 | 0.05 | 45 | 1008.4 |
| 20260503234523 | 9 | 328 | 3.2 | 12.9 | 0.00 | 0.05 | 0.05 | 45 | 1008.2 |
| 20260503233019 | 10 | 300 | 1.6 | 11.3 | 0.00 | 0.05 | 0.05 | 44 | 1008.0 |
| 20260503231521 | 10 | 281 | 6.4 | 14.5 | 0.00 | 0.05 | 0.05 | 43 | 1007.8 |
| 20260503230020 | 10 | 329 | 8.0 | 17.7 | 0.00 | 0.05 | 0.05 | 42 | 1007.7 |